Vorticity
5 8 9 11 12 12 13 14 16 13 9 13 20 18 15 14 8 5 5 10 22 31
9 9 9 10 11 10 11 10 12 18 17 13 11 14 12 14 15 14 10 6 4 5
9 9 9 9 10 9 8 9 11 9 11 15 12 14 15 13 12 13 17 13 9 10
8 9 8 7 8 8 9 10 9 10 10 9 9 9 6 11 15 11 11 15 16 17
9 10 8 7 7 6 7 7 6 8 8 8 9 9 10 9 5 7 10 10 9 8
9 11 10 10 9 9 9 8 8 9 9 8 8 9 9 9 8 9 9 9 12 11
14 14 14 12 13 13 11 10 9 9 8 8 9 8 9 9 9 9 9 10 10 15
10 11 11 11 12 12 12 11 10 8 8 8 8 9 9 9 9 9 8 8 8 8
12 10 7 9 12 13 13 12 12 11 10 9 9 9 9 10 9 9 7 7 8 9
16 15 14 14 13 12 12 12 11 11 10 10 9 10 9 10 10 9 8 7 6 4
19 19 19 18 18 18 17 15 12 12 11 10 9 8 8 7 7 7 6 7 8 8
14 13 12 12 12 13 15 15 15 15 14 15 13 13 12 13 13 13 13 12 11 11
9 9 9 10 11 11 12 12 13 14 14 14 13 13 14 15 14 13 12 13 13 14
12 13 14 15 16 16 16 17 16 15 15 16 16 15 15 16 16 15 15 14 13 12
Height
5657 5653 5649 5645 5642 5637 5633 5628 5625 5622 5619 5617 5616 5615 5614 5614 5614 5613 5612 5612 5612 5614
5642 5638 5633 5628 5624 5619 5615 5611 5607 5603 5600 5597 5595 5594 5593 5593 5592 5592 5592 5592 5592 5592
5625 5620 5615 5610 5606 5602 5597 5593 5589 5585 5582 5579 5576 5575 5573 5573 5571 5570 5571 5571 5571 5571
5607 5601 5596 5591 5587 5582 5578 5574 5569 5566 5562 5559 5556 5554 5552 5551 5550 5550 5550 5549 5550 5549
5587 5582 5577 5572 5567 5562 5558 5554 5550 5545 5541 5538 5535 5532 5530 5529 5527 5528 5528 5528 5528 5528
5565 5559 5554 5549 5545 5541 5537 5532 5528 5525 5521 5517 5514 5511 5508 5507 5505 5505 5505 5505 5505 5505
5543 5538 5532 5527 5522 5518 5514 5509 5506 5503 5499 5496 5493 5490 5486 5485 5484 5483 5482 5481 5481 5481
5520 5515 5509 5504 5500 5495 5491 5487 5483 5479 5476 5473 5470 5467 5464 5463 5462 5461 5461 5459 5458 5457
5494 5490 5485 5480 5476 5471 5467 5463 5460 5456 5453 5449 5446 5441 5439 5439 5439 5439 5438 5437 5436 5435
5468 5463 5458 5453 5449 5446 5443 5439 5435 5432 5428 5425 5422 5417 5415 5413 5413 5415 5415 5414 5413 5413
5442 5437 5432 5427 5422 5419 5415 5412 5408 5405 5402 5400 5396 5392 5390 5387 5388 5389 5389 5388 5388 5388
5418 5412 5407 5402 5397 5393 5389 5385 5381 5378 5375 5372 5370 5364 5362 5360 5361 5362 5362 5360 5359 5359
5396 5390 5383 5377 5371 5366 5362 5358 5354 5351 5347 5344 5343 5338 5335 5333 5333 5334 5333 5332 5332 5332
5372 5365 5358 5351 5345 5340 5335 5331 5327 5324 5320 5318 5314 5312 5309 5307 5305 5305 5305 5305 5306 5307